Year,Month,Day,Hour,Minute,Value (Times are PST for temperature in C)
2008,10,18,00,00,7.70
2008,10,18,00,01,7.70
2008,10,18,00,02,7.70
2008,10,18,00,03,7.70
2008,10,18,00,04,7.70
2008,10,18,00,05,7.60
2008,10,18,00,06,7.60
2008,10,18,00,07,7.60
2008,10,18,00,08,7.60
2008,10,18,00,09,7.60
2008,10,18,00,10,7.60
2008,10,18,00,11,7.60
2008,10,18,00,12,7.60
2008,10,18,00,13,7.50
2008,10,18,00,14,7.50
2008,10,18,00,15,7.50
2008,10,18,00,16,7.50
2008,10,18,00,17,7.50
2008,10,18,00,18,7.40
2008,10,18,00,19,7.40
2008,10,18,00,20,7.40
2008,10,18,00,21,7.40
2008,10,18,00,22,7.40
2008,10,18,00,23,7.50
2008,10,18,00,24,7.60
2008,10,18,00,25,7.60
2008,10,18,00,26,7.60
2008,10,18,00,27,7.60
2008,10,18,00,28,7.70
2008,10,18,00,29,7.70
2008,10,18,00,30,7.80
2008,10,18,00,31,7.80
2008,10,18,00,32,7.90
2008,10,18,00,33,7.90
2008,10,18,00,34,8.00
2008,10,18,00,35,8.10
2008,10,18,00,36,8.10
2008,10,18,00,37,8.20
2008,10,18,00,38,8.30
2008,10,18,00,39,8.40
2008,10,18,00,40,8.50
2008,10,18,00,41,8.60
2008,10,18,00,42,8.60
2008,10,18,00,43,8.70
2008,10,18,00,44,8.70
2008,10,18,00,45,8.70
2008,10,18,00,46,8.80
2008,10,18,00,47,8.80
2008,10,18,00,48,8.80
2008,10,18,00,49,8.80
2008,10,18,00,50,8.80
2008,10,18,00,51,8.80
2008,10,18,00,52,8.80
2008,10,18,00,53,8.70
2008,10,18,00,54,8.80
2008,10,18,00,55,8.80
2008,10,18,00,56,8.90
2008,10,18,00,57,8.90
2008,10,18,00,58,8.90
2008,10,18,00,59,9.00
2008,10,18,01,00,9.00
2008,10,18,01,01,9.10
2008,10,18,01,02,9.10
2008,10,18,01,03,9.10
2008,10,18,01,04,9.10
2008,10,18,01,05,9.20
2008,10,18,01,06,9.20
2008,10,18,01,07,9.20
2008,10,18,01,08,9.20
2008,10,18,01,09,9.20
2008,10,18,01,10,9.20
2008,10,18,01,11,9.20
2008,10,18,01,12,9.20
2008,10,18,01,13,9.20
2008,10,18,01,14,9.20
2008,10,18,01,15,9.20
2008,10,18,01,16,9.20
2008,10,18,01,17,9.20
2008,10,18,01,18,9.20
2008,10,18,01,19,9.20
2008,10,18,01,20,9.20
2008,10,18,01,21,9.20
2008,10,18,01,22,9.20
2008,10,18,01,23,9.20
2008,10,18,01,24,9.20
2008,10,18,01,25,9.20
2008,10,18,01,26,9.20
2008,10,18,01,27,9.20
2008,10,18,01,28,9.20
2008,10,18,01,29,9.10
2008,10,18,01,30,9.10
2008,10,18,01,31,9.10
2008,10,18,01,32,9.10
2008,10,18,01,33,9.10
2008,10,18,01,34,9.10
2008,10,18,01,35,9.00
2008,10,18,01,36,9.00
2008,10,18,01,37,9.00
2008,10,18,01,38,9.00
2008,10,18,01,39,9.00
2008,10,18,01,40,9.00
2008,10,18,01,41,9.00
2008,10,18,01,42,9.00
2008,10,18,01,43,9.00
2008,10,18,01,44,9.00
2008,10,18,01,45,9.00
2008,10,18,01,46,9.00
2008,10,18,01,47,8.90
2008,10,18,01,48,8.90
2008,10,18,01,49,8.90
2008,10,18,01,50,8.90
2008,10,18,01,51,8.90
2008,10,18,01,52,8.80
2008,10,18,01,53,8.80
2008,10,18,01,54,8.80
2008,10,18,01,55,8.80
2008,10,18,01,56,8.80
2008,10,18,01,57,8.80
2008,10,18,01,58,8.80
2008,10,18,01,59,8.80
2008,10,18,02,00,8.80
2008,10,18,02,01,8.70
2008,10,18,02,02,8.70
2008,10,18,02,03,8.60
2008,10,18,02,04,8.50
2008,10,18,02,05,8.40
2008,10,18,02,06,8.30
2008,10,18,02,07,8.30
2008,10,18,02,08,8.20
2008,10,18,02,09,8.20
2008,10,18,02,10,8.20
2008,10,18,02,11,8.20
2008,10,18,02,12,8.10
2008,10,18,02,13,8.10
2008,10,18,02,14,8.00
2008,10,18,02,15,8.00
2008,10,18,02,16,8.00
2008,10,18,02,17,8.00
2008,10,18,02,18,8.00
2008,10,18,02,19,8.00
2008,10,18,02,20,8.00
2008,10,18,02,21,8.00
2008,10,18,02,22,8.10
2008,10,18,02,23,8.10
2008,10,18,02,24,8.20
2008,10,18,02,25,8.20
2008,10,18,02,26,8.20
2008,10,18,02,27,8.20
2008,10,18,02,28,8.20
2008,10,18,02,29,8.20
2008,10,18,02,30,8.10
2008,10,18,02,31,8.10
2008,10,18,02,32,8.00
2008,10,18,02,33,7.90
2008,10,18,02,34,7.90
2008,10,18,02,35,7.90
2008,10,18,02,36,7.80
2008,10,18,02,37,7.80
2008,10,18,02,38,7.80
2008,10,18,02,39,7.80
2008,10,18,02,40,7.70
2008,10,18,02,41,7.70
2008,10,18,02,42,7.70
2008,10,18,02,43,7.70
2008,10,18,02,44,7.70
2008,10,18,02,45,7.70
2008,10,18,02,46,7.70
2008,10,18,02,47,7.70
2008,10,18,02,48,7.60
2008,10,18,02,49,7.60
2008,10,18,02,50,7.70
2008,10,18,02,51,7.70
2008,10,18,02,52,7.70
2008,10,18,02,53,7.70
2008,10,18,02,54,7.70
2008,10,18,02,55,7.70
2008,10,18,02,56,7.60
2008,10,18,02,57,7.60
2008,10,18,02,58,7.60
2008,10,18,02,59,7.70
2008,10,18,03,00,7.80
2008,10,18,03,01,7.80
2008,10,18,03,02,7.80
2008,10,18,03,03,7.80
2008,10,18,03,04,7.80
2008,10,18,03,05,7.80
2008,10,18,03,06,7.80
2008,10,18,03,07,7.70
2008,10,18,03,08,7.70
2008,10,18,03,09,7.60
2008,10,18,03,10,7.60
2008,10,18,03,11,7.60
2008,10,18,03,12,7.60
2008,10,18,03,13,7.70
2008,10,18,03,14,7.80
2008,10,18,03,15,7.80
2008,10,18,03,16,7.90
2008,10,18,03,17,8.00
2008,10,18,03,18,8.00
2008,10,18,03,19,8.10
2008,10,18,03,20,8.10
2008,10,18,03,21,8.10
2008,10,18,03,22,8.00
2008,10,18,03,23,8.00
2008,10,18,03,24,7.90
2008,10,18,03,25,7.90
2008,10,18,03,26,7.90
2008,10,18,03,27,7.80
2008,10,18,03,28,7.80
2008,10,18,03,29,7.80
2008,10,18,03,30,7.70
2008,10,18,03,31,7.70
2008,10,18,03,32,7.60
2008,10,18,03,33,7.50
2008,10,18,03,34,7.50
2008,10,18,03,35,7.40
2008,10,18,03,36,7.40
2008,10,18,03,37,7.40
2008,10,18,03,38,7.30
2008,10,18,03,39,7.30
2008,10,18,03,40,7.30
2008,10,18,03,41,7.30
2008,10,18,03,42,7.30
2008,10,18,03,43,7.40
2008,10,18,03,44,7.50
2008,10,18,03,45,7.60
2008,10,18,03,46,7.70
2008,10,18,03,47,7.70
2008,10,18,03,48,7.80
2008,10,18,03,49,7.80
2008,10,18,03,50,7.90
2008,10,18,03,51,7.90
2008,10,18,03,52,7.90
2008,10,18,03,53,8.00
2008,10,18,03,54,8.10
2008,10,18,03,55,8.20
2008,10,18,03,56,8.30
2008,10,18,03,57,8.40
2008,10,18,03,58,8.40
2008,10,18,03,59,8.50
2008,10,18,04,00,8.50
2008,10,18,04,01,8.50
2008,10,18,04,02,8.60
2008,10,18,04,03,8.60
2008,10,18,04,04,8.60
2008,10,18,04,05,8.60
2008,10,18,04,06,8.70
2008,10,18,04,07,8.70
2008,10,18,04,08,8.70
2008,10,18,04,09,8.70
2008,10,18,04,10,8.70
2008,10,18,04,11,8.70
2008,10,18,04,12,8.70
2008,10,18,04,13,8.70
2008,10,18,04,14,8.80
2008,10,18,04,15,8.80
2008,10,18,04,16,8.80
2008,10,18,04,17,8.70
2008,10,18,04,18,8.70
2008,10,18,04,19,8.80
2008,10,18,04,20,8.80
2008,10,18,04,21,8.80
2008,10,18,04,22,8.80
2008,10,18,04,23,8.80
2008,10,18,04,24,8.80
2008,10,18,04,25,8.80
2008,10,18,04,26,8.80
2008,10,18,04,27,8.70
2008,10,18,04,28,8.70
2008,10,18,04,29,8.70
2008,10,18,04,30,8.70
2008,10,18,04,31,8.70
2008,10,18,04,32,8.80
2008,10,18,04,33,8.80
2008,10,18,04,34,8.80
2008,10,18,04,35,8.80
2008,10,18,04,36,8.80
2008,10,18,04,37,8.80
2008,10,18,04,38,8.80
2008,10,18,04,39,8.80
2008,10,18,04,40,8.80
2008,10,18,04,41,8.80
2008,10,18,04,42,8.80
2008,10,18,04,43,8.80
2008,10,18,04,44,8.80
2008,10,18,04,45,8.80
2008,10,18,04,46,8.80
2008,10,18,04,47,8.80
2008,10,18,04,48,8.80
2008,10,18,04,49,8.80
2008,10,18,04,50,8.80
2008,10,18,04,51,8.90
2008,10,18,04,52,8.90
2008,10,18,04,53,8.90
2008,10,18,04,54,8.90
2008,10,18,04,55,8.90
2008,10,18,04,56,8.90
2008,10,18,04,57,8.90
2008,10,18,04,58,8.90
2008,10,18,04,59,8.90
2008,10,18,05,00,8.90
2008,10,18,05,01,8.80
2008,10,18,05,02,8.80
2008,10,18,05,03,8.70
2008,10,18,05,04,8.50
2008,10,18,05,05,8.30
2008,10,18,05,06,8.10
2008,10,18,05,07,7.90
2008,10,18,05,08,7.60
2008,10,18,05,09,7.40
2008,10,18,05,10,7.30
2008,10,18,05,11,7.20
2008,10,18,05,12,7.10
2008,10,18,05,13,7.00
2008,10,18,05,14,6.90
2008,10,18,05,15,6.80
2008,10,18,05,16,6.70
2008,10,18,05,17,6.70
2008,10,18,05,18,6.60
2008,10,18,05,19,6.60
2008,10,18,05,20,6.50
2008,10,18,05,21,6.50
2008,10,18,05,22,6.40
2008,10,18,05,23,6.40
2008,10,18,05,24,6.40
2008,10,18,05,25,6.30
2008,10,18,05,26,6.30
2008,10,18,05,27,6.30
2008,10,18,05,28,6.30
2008,10,18,05,29,6.30
2008,10,18,05,30,6.30
2008,10,18,05,31,6.30
2008,10,18,05,32,6.30
2008,10,18,05,33,6.20
2008,10,18,05,34,6.20
2008,10,18,05,35,6.20
2008,10,18,05,36,6.30
2008,10,18,05,37,6.30
2008,10,18,05,38,6.30
2008,10,18,05,39,6.30
2008,10,18,05,40,6.30
2008,10,18,05,41,6.40
2008,10,18,05,42,6.40
2008,10,18,05,43,6.40
2008,10,18,05,44,6.40
2008,10,18,05,45,6.40
2008,10,18,05,46,6.40
2008,10,18,05,47,6.40
2008,10,18,05,48,6.30
2008,10,18,05,49,6.30
2008,10,18,05,50,6.30
2008,10,18,05,51,6.20
2008,10,18,05,52,6.20
2008,10,18,05,53,6.20
2008,10,18,05,54,6.30
2008,10,18,05,55,6.30
2008,10,18,05,56,6.30
2008,10,18,05,57,6.30
2008,10,18,05,58,6.30
2008,10,18,05,59,6.30
2008,10,18,06,00,6.30
2008,10,18,06,01,6.30
2008,10,18,06,02,6.30
2008,10,18,06,03,6.30
2008,10,18,06,04,6.20
2008,10,18,06,05,6.20
2008,10,18,06,06,6.10
2008,10,18,06,07,6.10
2008,10,18,06,08,6.10
2008,10,18,06,09,6.10
2008,10,18,06,10,6.00
2008,10,18,06,11,6.00
2008,10,18,06,12,6.00
2008,10,18,06,13,6.00
2008,10,18,06,14,6.00
2008,10,18,06,15,5.90
2008,10,18,06,16,5.90
2008,10,18,06,17,5.90
2008,10,18,06,18,5.90
2008,10,18,06,19,5.80
2008,10,18,06,20,5.80
2008,10,18,06,21,5.80
2008,10,18,06,22,5.80
2008,10,18,06,23,5.70
2008,10,18,06,24,5.70
2008,10,18,06,25,5.60
2008,10,18,06,26,5.50
2008,10,18,06,27,5.50
2008,10,18,06,28,5.40
2008,10,18,06,29,5.40
2008,10,18,06,30,5.40
2008,10,18,06,31,5.30
2008,10,18,06,32,5.30
2008,10,18,06,33,5.30
2008,10,18,06,34,5.20
2008,10,18,06,35,5.20
2008,10,18,06,36,5.20
2008,10,18,06,37,5.10
2008,10,18,06,38,5.10
2008,10,18,06,39,5.10
2008,10,18,06,40,5.00
2008,10,18,06,41,5.00
2008,10,18,06,42,5.00
2008,10,18,06,43,5.00
2008,10,18,06,44,5.00
2008,10,18,06,45,5.00
2008,10,18,06,46,5.00
2008,10,18,06,47,5.00
2008,10,18,06,48,5.00
2008,10,18,06,49,5.00
2008,10,18,06,50,5.10
2008,10,18,06,51,5.10
2008,10,18,06,52,5.10
2008,10,18,06,53,5.10
2008,10,18,06,54,5.00
2008,10,18,06,55,4.90
2008,10,18,06,56,4.90
2008,10,18,06,57,4.90
2008,10,18,06,58,4.80
2008,10,18,06,59,4.80
2008,10,18,07,00,4.80
2008,10,18,07,01,4.70
2008,10,18,07,02,4.70
2008,10,18,07,03,4.70
2008,10,18,07,04,4.70
2008,10,18,07,05,4.70
2008,10,18,07,06,4.70
2008,10,18,07,07,4.70
2008,10,18,07,08,4.70
2008,10,18,07,09,4.70
2008,10,18,07,10,4.70
2008,10,18,07,11,4.60
2008,10,18,07,12,4.60
2008,10,18,07,13,4.60
2008,10,18,07,14,4.60
2008,10,18,07,15,4.50
2008,10,18,07,16,4.50
2008,10,18,07,17,4.50
2008,10,18,07,18,4.50
2008,10,18,07,19,4.40
2008,10,18,07,20,4.40
2008,10,18,07,21,4.40
2008,10,18,07,22,4.40
2008,10,18,07,23,4.40
2008,10,18,07,24,4.30
2008,10,18,07,25,4.30
2008,10,18,07,26,4.30
2008,10,18,07,27,4.30
2008,10,18,07,28,4.30
2008,10,18,07,29,4.30
2008,10,18,07,30,4.30
2008,10,18,07,31,4.30
2008,10,18,07,32,4.30
2008,10,18,07,33,4.30
2008,10,18,07,34,4.30
2008,10,18,07,35,4.30
2008,10,18,07,36,4.40
2008,10,18,07,37,4.40
2008,10,18,07,38,4.50
2008,10,18,07,39,4.50
2008,10,18,07,40,4.60
2008,10,18,07,41,4.60
2008,10,18,07,42,4.50
2008,10,18,07,43,4.50
2008,10,18,07,44,4.40
2008,10,18,07,45,4.40
2008,10,18,07,46,4.40
2008,10,18,07,47,4.30
2008,10,18,07,48,4.30
2008,10,18,07,49,4.30
2008,10,18,07,50,4.30
2008,10,18,07,51,4.30
2008,10,18,07,52,4.20
2008,10,18,07,53,4.20
2008,10,18,07,54,4.20
2008,10,18,07,55,4.20
2008,10,18,07,56,4.20
2008,10,18,07,57,4.10
2008,10,18,07,58,4.10
2008,10,18,07,59,4.10
2008,10,18,08,00,4.10
2008,10,18,08,01,4.10
2008,10,18,08,02,4.10
2008,10,18,08,03,4.10
2008,10,18,08,04,4.10
2008,10,18,08,05,4.10
2008,10,18,08,06,4.10
2008,10,18,08,07,4.10
2008,10,18,08,08,4.10
2008,10,18,08,09,4.10
2008,10,18,08,10,4.10
2008,10,18,08,11,4.20
2008,10,18,08,12,4.20
2008,10,18,08,13,4.20
2008,10,18,08,14,4.20
2008,10,18,08,15,4.20
2008,10,18,08,16,4.30
2008,10,18,08,17,4.30
2008,10,18,08,18,4.30
2008,10,18,08,19,4.30
2008,10,18,08,20,4.40
2008,10,18,08,21,4.40
2008,10,18,08,22,4.50
2008,10,18,08,23,4.50
2008,10,18,08,24,4.60
2008,10,18,08,25,4.60
2008,10,18,08,26,4.60
2008,10,18,08,27,4.70
2008,10,18,08,28,4.70
2008,10,18,08,29,4.70
2008,10,18,08,30,4.70
2008,10,18,08,31,4.70
2008,10,18,08,32,4.70
2008,10,18,08,33,4.70
2008,10,18,08,34,4.80
2008,10,18,08,35,4.80
2008,10,18,08,36,4.80
2008,10,18,08,37,4.80
2008,10,18,08,38,4.90
2008,10,18,08,39,5.00
2008,10,18,08,40,5.00
2008,10,18,08,41,5.10
2008,10,18,08,42,5.10
2008,10,18,08,43,5.20
2008,10,18,08,44,5.20
2008,10,18,08,45,5.20
2008,10,18,08,46,5.20
2008,10,18,08,47,5.20
2008,10,18,08,48,5.30
2008,10,18,08,49,5.30
2008,10,18,08,50,5.30
2008,10,18,08,51,5.40
2008,10,18,08,52,5.40
2008,10,18,08,53,5.50
2008,10,18,08,54,5.60
2008,10,18,08,55,5.70
2008,10,18,08,56,5.70
2008,10,18,08,57,5.70
2008,10,18,08,58,5.80
2008,10,18,08,59,5.80
2008,10,18,09,00,5.80
2008,10,18,09,01,5.90
2008,10,18,09,02,5.90
2008,10,18,09,03,5.90
2008,10,18,09,04,6.00
2008,10,18,09,05,6.10
2008,10,18,09,06,6.20
2008,10,18,09,07,6.30
2008,10,18,09,08,6.40
2008,10,18,09,09,6.50
2008,10,18,09,10,6.60
2008,10,18,09,11,6.70
2008,10,18,09,12,6.80
2008,10,18,09,13,6.90
2008,10,18,09,14,7.00
2008,10,18,09,15,7.20
2008,10,18,09,16,7.30
2008,10,18,09,17,7.40
2008,10,18,09,18,7.60
2008,10,18,09,19,7.80
2008,10,18,09,20,7.90
2008,10,18,09,21,8.00
2008,10,18,09,22,8.20
2008,10,18,09,23,8.40
2008,10,18,09,24,8.50
2008,10,18,09,25,8.70
2008,10,18,09,26,8.80
2008,10,18,09,27,8.90
2008,10,18,09,28,9.00
2008,10,18,09,29,9.10
2008,10,18,09,30,9.10
2008,10,18,09,31,9.20
2008,10,18,09,32,9.20
2008,10,18,09,33,9.30
2008,10,18,09,34,9.30
2008,10,18,09,35,9.30
2008,10,18,09,36,9.30
2008,10,18,09,37,9.40
2008,10,18,09,38,9.40
2008,10,18,09,39,9.50
2008,10,18,09,40,9.60
2008,10,18,09,41,9.60
2008,10,18,09,42,9.70
2008,10,18,09,43,9.80
2008,10,18,09,44,9.80
2008,10,18,09,45,9.80
2008,10,18,09,46,9.80
2008,10,18,09,47,9.80
2008,10,18,09,48,9.80
2008,10,18,09,49,9.80
2008,10,18,09,50,9.70
2008,10,18,09,51,9.70
2008,10,18,09,52,9.70
2008,10,18,09,53,9.70
2008,10,18,09,54,9.60
2008,10,18,09,55,9.60
2008,10,18,09,56,9.60
2008,10,18,09,57,9.60
2008,10,18,09,58,9.60
2008,10,18,09,59,9.60
2008,10,18,10,00,9.50
2008,10,18,10,01,9.50
2008,10,18,10,02,9.50
2008,10,18,10,03,9.40
2008,10,18,10,04,9.40
2008,10,18,10,05,9.40
2008,10,18,10,06,9.40
2008,10,18,10,07,9.40
2008,10,18,10,08,9.40
2008,10,18,10,09,9.50
2008,10,18,10,10,9.50
2008,10,18,10,11,9.50
2008,10,18,10,12,9.50
2008,10,18,10,13,9.50
2008,10,18,10,14,9.50
2008,10,18,10,15,9.50
2008,10,18,10,16,9.60
2008,10,18,10,17,9.60
2008,10,18,10,18,9.60
2008,10,18,10,19,9.60
2008,10,18,10,20,9.60
2008,10,18,10,21,9.70
2008,10,18,10,22,9.70
2008,10,18,10,23,9.70
2008,10,18,10,24,9.70
2008,10,18,10,25,9.70
2008,10,18,10,26,9.80
2008,10,18,10,27,9.80
2008,10,18,10,28,9.80
2008,10,18,10,29,9.80
2008,10,18,10,30,9.80
2008,10,18,10,31,9.90
2008,10,18,10,32,9.90
2008,10,18,10,33,9.90
2008,10,18,10,34,9.90
2008,10,18,10,35,9.90
2008,10,18,10,36,9.90
2008,10,18,10,37,9.90
2008,10,18,10,38,9.90
2008,10,18,10,39,9.90
2008,10,18,10,40,9.90
2008,10,18,10,41,9.90
2008,10,18,10,42,9.90
2008,10,18,10,43,9.90
2008,10,18,10,44,9.90
2008,10,18,10,45,9.90
2008,10,18,10,46,10.00
2008,10,18,10,47,10.00
2008,10,18,10,48,10.00
2008,10,18,10,49,10.00
2008,10,18,10,50,10.00
2008,10,18,10,51,10.00
2008,10,18,10,52,10.10
2008,10,18,10,53,10.10
2008,10,18,10,54,10.10
2008,10,18,10,55,10.10
2008,10,18,10,56,10.20
2008,10,18,10,57,10.20
2008,10,18,10,58,10.30
2008,10,18,10,59,10.30
2008,10,18,11,00,10.40
2008,10,18,11,01,10.60
2008,10,18,11,02,10.70
2008,10,18,11,03,10.90
2008,10,18,11,04,11.00
2008,10,18,11,05,11.20
2008,10,18,11,06,11.30
2008,10,18,11,07,11.40
2008,10,18,11,08,11.40
2008,10,18,11,09,11.50
2008,10,18,11,10,11.60
2008,10,18,11,11,11.70
2008,10,18,11,12,11.80
2008,10,18,11,13,11.80
2008,10,18,11,14,11.80
2008,10,18,11,15,11.80
2008,10,18,11,16,11.90
2008,10,18,11,17,11.90
2008,10,18,11,18,11.90
2008,10,18,11,19,11.90
2008,10,18,11,20,11.90
2008,10,18,11,21,11.90
2008,10,18,11,22,11.90
2008,10,18,11,23,11.90
2008,10,18,11,24,11.90
2008,10,18,11,25,11.90
2008,10,18,11,26,11.90
2008,10,18,11,27,11.90
2008,10,18,11,28,12.00
2008,10,18,11,29,12.00
2008,10,18,11,30,12.00
2008,10,18,11,31,11.90
2008,10,18,11,32,12.00
2008,10,18,11,33,12.00
2008,10,18,11,34,12.10
2008,10,18,11,35,12.10
2008,10,18,11,36,12.20
2008,10,18,11,37,12.20
2008,10,18,11,38,12.30
2008,10,18,11,39,12.40
2008,10,18,11,40,12.40
2008,10,18,11,41,12.40
2008,10,18,11,42,12.30
2008,10,18,11,43,12.30
2008,10,18,11,44,12.30
2008,10,18,11,45,12.20
2008,10,18,11,46,12.20
2008,10,18,11,47,12.10
2008,10,18,11,48,12.00
2008,10,18,11,49,12.00
2008,10,18,11,50,11.90
2008,10,18,11,51,11.90
2008,10,18,11,52,11.90
2008,10,18,11,53,11.90
2008,10,18,11,54,11.90
2008,10,18,11,55,12.00
2008,10,18,11,56,12.00
2008,10,18,11,57,12.10
2008,10,18,11,58,12.10
2008,10,18,11,59,12.10
2008,10,18,12,00,12.10
2008,10,18,12,01,12.10
2008,10,18,12,02,12.00
2008,10,18,12,03,11.90
2008,10,18,12,04,11.80
2008,10,18,12,05,11.80
2008,10,18,12,06,11.80
2008,10,18,12,07,11.80
2008,10,18,12,08,11.80
2008,10,18,12,09,11.80
2008,10,18,12,10,11.70
2008,10,18,12,11,11.70
2008,10,18,12,12,11.80
2008,10,18,12,13,11.80
2008,10,18,12,14,11.80
2008,10,18,12,15,11.70
2008,10,18,12,16,11.70
2008,10,18,12,17,11.80
2008,10,18,12,18,11.80
2008,10,18,12,19,11.80
2008,10,18,12,20,11.90
2008,10,18,12,21,11.90
2008,10,18,12,22,12.00
2008,10,18,12,23,12.00
2008,10,18,12,24,12.00
2008,10,18,12,25,11.90
2008,10,18,12,26,11.90
2008,10,18,12,27,11.80
2008,10,18,12,28,11.90
2008,10,18,12,29,12.00
2008,10,18,12,30,12.00
2008,10,18,12,31,12.00
2008,10,18,12,32,12.00
2008,10,18,12,33,12.00
2008,10,18,12,34,12.00
2008,10,18,12,35,12.00
2008,10,18,12,36,11.90
2008,10,18,12,37,12.00
2008,10,18,12,38,12.00
2008,10,18,12,39,12.10
2008,10,18,12,40,12.10
2008,10,18,12,41,12.10
2008,10,18,12,42,12.10
2008,10,18,12,43,12.10
2008,10,18,12,44,12.10
2008,10,18,12,45,12.10
2008,10,18,12,46,12.10
2008,10,18,12,47,12.10
2008,10,18,12,48,12.20
2008,10,18,12,49,12.20
2008,10,18,12,50,12.20
2008,10,18,12,51,12.20
2008,10,18,12,52,12.30
2008,10,18,12,53,12.30
2008,10,18,12,54,12.30
2008,10,18,12,55,12.40
2008,10,18,12,56,12.40
2008,10,18,12,57,12.50
2008,10,18,12,58,12.50
2008,10,18,12,59,12.40
2008,10,18,13,00,12.40
2008,10,18,13,01,12.30
2008,10,18,13,02,12.30
2008,10,18,13,03,12.20
2008,10,18,13,04,12.20
2008,10,18,13,05,12.20
2008,10,18,13,06,12.10
2008,10,18,13,07,12.10
2008,10,18,13,08,12.10
2008,10,18,13,09,12.10
2008,10,18,13,10,12.20
2008,10,18,13,11,12.20
2008,10,18,13,12,12.20
2008,10,18,13,13,12.20
2008,10,18,13,14,12.20
2008,10,18,13,15,12.20
2008,10,18,13,16,12.20
2008,10,18,13,17,12.20
2008,10,18,13,18,12.20
2008,10,18,13,19,12.10
2008,10,18,13,20,12.10
2008,10,18,13,21,12.10
2008,10,18,13,22,12.10
2008,10,18,13,23,12.10
2008,10,18,13,24,12.10
2008,10,18,13,25,12.10
2008,10,18,13,26,12.10
2008,10,18,13,27,12.10
2008,10,18,13,28,12.00
2008,10,18,13,29,12.00
2008,10,18,13,30,12.00
2008,10,18,13,31,12.00
2008,10,18,13,32,12.00
2008,10,18,13,33,12.00
2008,10,18,13,34,12.00
2008,10,18,13,35,11.90
2008,10,18,13,36,11.90
2008,10,18,13,37,12.00
2008,10,18,13,38,12.00
2008,10,18,13,39,12.00
2008,10,18,13,40,12.10
2008,10,18,13,41,12.10
2008,10,18,13,42,12.10
2008,10,18,13,43,12.10
2008,10,18,13,44,12.10
2008,10,18,13,45,12.10
2008,10,18,13,46,12.00
2008,10,18,13,47,12.00
2008,10,18,13,48,12.00
2008,10,18,13,49,12.00
2008,10,18,13,50,12.00
2008,10,18,13,51,12.10
2008,10,18,13,52,12.10
2008,10,18,13,53,12.10
2008,10,18,13,54,12.10
2008,10,18,13,55,12.20
2008,10,18,13,56,12.20
2008,10,18,13,57,12.10
2008,10,18,13,58,12.10
2008,10,18,13,59,12.00
2008,10,18,14,00,11.90
2008,10,18,14,01,11.90
2008,10,18,14,02,11.90
2008,10,18,14,03,11.90
2008,10,18,14,04,11.90
2008,10,18,14,05,11.90
2008,10,18,14,06,11.90
2008,10,18,14,07,11.80
2008,10,18,14,08,11.80
2008,10,18,14,09,11.70
2008,10,18,14,10,11.70
2008,10,18,14,11,11.60
2008,10,18,14,12,11.60
2008,10,18,14,13,11.60
2008,10,18,14,14,11.60
2008,10,18,14,15,11.60
2008,10,18,14,16,11.60
2008,10,18,14,17,11.60
2008,10,18,14,18,11.60
2008,10,18,14,19,11.60
2008,10,18,14,20,11.60
2008,10,18,14,21,11.60
2008,10,18,14,22,11.60
2008,10,18,14,23,11.60
2008,10,18,14,24,11.60
2008,10,18,14,25,11.60
2008,10,18,14,26,11.50
2008,10,18,14,27,11.40
2008,10,18,14,28,11.30
2008,10,18,14,29,11.30
2008,10,18,14,30,11.30
2008,10,18,14,31,11.20
2008,10,18,14,32,11.20
2008,10,18,14,33,11.20
2008,10,18,14,34,11.20
2008,10,18,14,35,11.20
2008,10,18,14,36,11.20
2008,10,18,14,37,11.20
2008,10,18,14,38,11.20
2008,10,18,14,39,11.30
2008,10,18,14,40,11.30
2008,10,18,14,41,11.40
2008,10,18,14,42,11.40
2008,10,18,14,43,11.40
2008,10,18,14,44,11.40
2008,10,18,14,45,11.40
2008,10,18,14,46,11.40
2008,10,18,14,47,11.50
2008,10,18,14,48,11.50
2008,10,18,14,49,11.50
2008,10,18,14,50,11.50
2008,10,18,14,51,11.50
2008,10,18,14,52,11.60
2008,10,18,14,53,11.60
2008,10,18,14,54,11.60
2008,10,18,14,55,11.60
2008,10,18,14,56,11.60
2008,10,18,14,57,11.60
2008,10,18,14,58,11.60
2008,10,18,14,59,11.60
2008,10,18,15,00,11.60
2008,10,18,15,01,11.60
2008,10,18,15,02,11.60
2008,10,18,15,03,11.60
2008,10,18,15,04,11.60
2008,10,18,15,05,11.50
2008,10,18,15,06,11.50
2008,10,18,15,07,11.60
2008,10,18,15,08,11.60
2008,10,18,15,09,11.60
2008,10,18,15,10,11.60
2008,10,18,15,11,11.60
2008,10,18,15,12,11.60
2008,10,18,15,13,11.60
2008,10,18,15,14,11.60
2008,10,18,15,15,11.60
2008,10,18,15,16,11.60
2008,10,18,15,17,11.60
2008,10,18,15,18,11.60
2008,10,18,15,19,11.60
2008,10,18,15,20,11.60
2008,10,18,15,21,11.60
2008,10,18,15,22,11.60
2008,10,18,15,23,11.60
2008,10,18,15,24,11.60
2008,10,18,15,25,11.60
2008,10,18,15,26,11.70
2008,10,18,15,27,11.70
2008,10,18,15,28,11.70
2008,10,18,15,29,11.60
2008,10,18,15,30,11.60
2008,10,18,15,31,11.60
2008,10,18,15,32,11.50
2008,10,18,15,33,11.40
2008,10,18,15,34,11.40
2008,10,18,15,35,11.30
2008,10,18,15,36,11.30
2008,10,18,15,37,11.20
2008,10,18,15,38,11.20
2008,10,18,15,39,11.20
2008,10,18,15,40,11.20
2008,10,18,15,41,11.30
2008,10,18,15,42,11.30
2008,10,18,15,43,11.40
2008,10,18,15,44,11.40
2008,10,18,15,45,11.30
2008,10,18,15,46,11.30
2008,10,18,15,47,11.30
2008,10,18,15,48,11.30
2008,10,18,15,49,11.30
2008,10,18,15,50,11.20
2008,10,18,15,51,11.20
2008,10,18,15,52,11.20
2008,10,18,15,53,11.10
2008,10,18,15,54,11.10
2008,10,18,15,55,11.00
2008,10,18,15,56,11.00
2008,10,18,15,57,10.90
2008,10,18,15,58,10.80
2008,10,18,15,59,10.80
2008,10,18,16,00,10.80
2008,10,18,16,01,10.70
2008,10,18,16,02,10.70
2008,10,18,16,03,10.70
2008,10,18,16,04,10.70
2008,10,18,16,05,10.70
2008,10,18,16,06,10.70
2008,10,18,16,07,10.70
2008,10,18,16,08,10.60
2008,10,18,16,09,10.60
2008,10,18,16,10,10.60
2008,10,18,16,11,10.60
2008,10,18,16,12,10.50
2008,10,18,16,13,10.50
2008,10,18,16,14,10.50
2008,10,18,16,15,10.40
2008,10,18,16,16,10.40
2008,10,18,16,17,10.40
2008,10,18,16,18,10.40
2008,10,18,16,19,10.40
2008,10,18,16,20,10.30
2008,10,18,16,21,10.30
2008,10,18,16,22,10.30
2008,10,18,16,23,10.30
2008,10,18,16,24,10.30
2008,10,18,16,25,10.30
2008,10,18,16,26,10.30
2008,10,18,16,27,10.20
2008,10,18,16,28,10.20
2008,10,18,16,29,10.20
2008,10,18,16,30,10.10
2008,10,18,16,31,10.10
2008,10,18,16,32,10.10
2008,10,18,16,33,10.10
2008,10,18,16,34,10.10
2008,10,18,16,35,10.10
2008,10,18,16,36,10.00
2008,10,18,16,37,10.00
2008,10,18,16,38,10.00
2008,10,18,16,39,10.00
2008,10,18,16,40,10.00
2008,10,18,16,41,10.00
2008,10,18,16,42,10.00
2008,10,18,16,43,10.00
2008,10,18,16,44,10.00
2008,10,18,16,45,10.00
2008,10,18,16,46,10.00
2008,10,18,16,47,10.00
2008,10,18,16,48,10.00
2008,10,18,16,49,10.00
2008,10,18,16,50,10.00
2008,10,18,16,51,10.00
2008,10,18,16,52,10.00
2008,10,18,16,53,10.00
2008,10,18,16,54,10.00
2008,10,18,16,55,10.00
2008,10,18,16,56,10.00
2008,10,18,16,57,10.10
2008,10,18,16,58,10.10
2008,10,18,16,59,10.10
2008,10,18,17,00,10.10
2008,10,18,17,01,10.10
2008,10,18,17,02,10.10
2008,10,18,17,03,10.10
2008,10,18,17,04,10.10
2008,10,18,17,05,10.10
2008,10,18,17,06,10.10
2008,10,18,17,07,10.20
2008,10,18,17,08,10.20
2008,10,18,17,09,10.20
2008,10,18,17,10,10.20
2008,10,18,17,11,10.20
2008,10,18,17,12,10.20
2008,10,18,17,13,10.20
2008,10,18,17,14,10.20
2008,10,18,17,15,10.20
2008,10,18,17,16,10.30
2008,10,18,17,17,10.30
2008,10,18,17,18,10.30
2008,10,18,17,19,10.30
2008,10,18,17,20,10.30
2008,10,18,17,21,10.30
2008,10,18,17,22,10.30
2008,10,18,17,23,10.30
2008,10,18,17,24,10.30
2008,10,18,17,25,10.30
2008,10,18,17,26,10.30
2008,10,18,17,27,10.30
2008,10,18,17,28,10.20
2008,10,18,17,29,10.20
2008,10,18,17,30,10.20
2008,10,18,17,31,10.20
2008,10,18,17,32,10.10
2008,10,18,17,33,10.10
2008,10,18,17,34,10.10
2008,10,18,17,35,10.10
2008,10,18,17,36,10.00
2008,10,18,17,37,10.00
2008,10,18,17,38,9.90
2008,10,18,17,39,9.90
2008,10,18,17,40,9.90
2008,10,18,17,41,9.80
2008,10,18,17,42,9.80
2008,10,18,17,43,9.80
2008,10,18,17,44,9.70
2008,10,18,17,45,9.60
2008,10,18,17,46,9.60
2008,10,18,17,47,9.50
2008,10,18,17,48,9.50